Year,Month,Day,Hour,Minute,Value (Times are PST for temperature in C)
2008,10,08,00,00,7.90
2008,10,08,00,01,7.80
2008,10,08,00,02,7.70
2008,10,08,00,03,7.70
2008,10,08,00,04,7.60
2008,10,08,00,05,7.60
2008,10,08,00,06,7.60
2008,10,08,00,07,7.50
2008,10,08,00,08,7.50
2008,10,08,00,09,7.50
2008,10,08,00,10,7.50
2008,10,08,00,11,7.40
2008,10,08,00,12,7.40
2008,10,08,00,13,7.40
2008,10,08,00,14,7.30
2008,10,08,00,15,7.30
2008,10,08,00,16,7.30
2008,10,08,00,17,7.20
2008,10,08,00,18,7.20
2008,10,08,00,19,7.20
2008,10,08,00,20,7.20
2008,10,08,00,21,7.20
2008,10,08,00,22,7.20
2008,10,08,00,23,7.20
2008,10,08,00,24,7.30
2008,10,08,00,25,7.40
2008,10,08,00,26,7.50
2008,10,08,00,27,7.50
2008,10,08,00,28,7.60
2008,10,08,00,29,7.70
2008,10,08,00,30,7.80
2008,10,08,00,31,7.80
2008,10,08,00,32,7.90
2008,10,08,00,33,8.00
2008,10,08,00,34,8.10
2008,10,08,00,35,8.10
2008,10,08,00,36,8.20
2008,10,08,00,37,8.20
2008,10,08,00,38,8.20
2008,10,08,00,39,8.20
2008,10,08,00,40,8.20
2008,10,08,00,41,8.20
2008,10,08,00,42,8.20
2008,10,08,00,43,8.20
2008,10,08,00,44,8.20
2008,10,08,00,45,8.20
2008,10,08,00,46,8.20
2008,10,08,00,47,8.20
2008,10,08,00,48,8.20
2008,10,08,00,49,8.20
2008,10,08,00,50,8.10
2008,10,08,00,51,8.10
2008,10,08,00,52,8.10
2008,10,08,00,53,8.00
2008,10,08,00,54,8.00
2008,10,08,00,55,8.00
2008,10,08,00,56,8.00
2008,10,08,00,57,8.00
2008,10,08,00,58,7.90
2008,10,08,00,59,7.90
2008,10,08,01,00,7.90
2008,10,08,01,01,7.80
2008,10,08,01,02,7.80
2008,10,08,01,03,7.70
2008,10,08,01,04,7.70
2008,10,08,01,05,7.60
2008,10,08,01,06,7.60
2008,10,08,01,07,7.60
2008,10,08,01,08,7.60
2008,10,08,01,09,7.60
2008,10,08,01,10,7.70
2008,10,08,01,11,7.70
2008,10,08,01,12,7.70
2008,10,08,01,13,7.70
2008,10,08,01,14,7.70
2008,10,08,01,15,7.60
2008,10,08,01,16,7.60
2008,10,08,01,17,7.60
2008,10,08,01,18,7.50
2008,10,08,01,19,7.50
2008,10,08,01,20,7.40
2008,10,08,01,21,7.40
2008,10,08,01,22,7.30
2008,10,08,01,23,7.30
2008,10,08,01,24,7.20
2008,10,08,01,25,7.20
2008,10,08,01,26,7.10
2008,10,08,01,27,7.00
2008,10,08,01,28,7.00
2008,10,08,01,29,7.00
2008,10,08,01,30,6.90
2008,10,08,01,31,6.90
2008,10,08,01,32,6.90
2008,10,08,01,33,6.90
2008,10,08,01,34,6.90
2008,10,08,01,35,6.90
2008,10,08,01,36,6.90
2008,10,08,01,37,6.80
2008,10,08,01,38,6.80
2008,10,08,01,39,6.80
2008,10,08,01,40,6.70
2008,10,08,01,41,6.70
2008,10,08,01,42,6.70
2008,10,08,01,43,6.70
2008,10,08,01,44,6.70
2008,10,08,01,45,6.70
2008,10,08,01,46,6.70
2008,10,08,01,47,6.60
2008,10,08,01,48,6.60
2008,10,08,01,49,6.50
2008,10,08,01,50,6.50
2008,10,08,01,51,6.50
2008,10,08,01,52,6.40
2008,10,08,01,53,6.40
2008,10,08,01,54,6.30
2008,10,08,01,55,6.20
2008,10,08,01,56,6.20
2008,10,08,01,57,6.10
2008,10,08,01,58,6.00
2008,10,08,01,59,6.00
2008,10,08,02,00,5.90
2008,10,08,02,01,5.90
2008,10,08,02,02,5.90
2008,10,08,02,03,5.90
2008,10,08,02,04,5.80
2008,10,08,02,05,5.80
2008,10,08,02,06,5.80
2008,10,08,02,07,5.80
2008,10,08,02,08,5.80
2008,10,08,02,09,5.70
2008,10,08,02,10,5.70
2008,10,08,02,11,5.70
2008,10,08,02,12,5.70
2008,10,08,02,13,5.70
2008,10,08,02,14,5.70
2008,10,08,02,15,5.70
2008,10,08,02,16,5.70
2008,10,08,02,17,5.70
2008,10,08,02,18,5.70
2008,10,08,02,19,5.70
2008,10,08,02,20,5.60
2008,10,08,02,21,5.60
2008,10,08,02,22,5.60
2008,10,08,02,23,5.50
2008,10,08,02,24,5.40
2008,10,08,02,25,5.40
2008,10,08,02,26,5.30
2008,10,08,02,27,5.30
2008,10,08,02,28,5.30
2008,10,08,02,29,5.20
2008,10,08,02,30,5.20
2008,10,08,02,31,5.20
2008,10,08,02,32,5.20
2008,10,08,02,33,5.20
2008,10,08,02,34,5.20
2008,10,08,02,35,5.20
2008,10,08,02,36,5.20
2008,10,08,02,37,5.20
2008,10,08,02,38,5.20
2008,10,08,02,39,5.10
2008,10,08,02,40,5.10
2008,10,08,02,41,5.10
2008,10,08,02,42,5.10
2008,10,08,02,43,5.10
2008,10,08,02,44,5.10
2008,10,08,02,45,5.10
2008,10,08,02,46,5.00
2008,10,08,02,47,5.00
2008,10,08,02,48,5.00
2008,10,08,02,49,5.00
2008,10,08,02,50,4.90
2008,10,08,02,51,4.90
2008,10,08,02,52,4.90
2008,10,08,02,53,4.90
2008,10,08,02,54,4.90
2008,10,08,02,55,4.90
2008,10,08,02,56,4.80
2008,10,08,02,57,4.80
2008,10,08,02,58,4.80
2008,10,08,02,59,4.80
2008,10,08,03,00,4.80
2008,10,08,03,01,4.80
2008,10,08,03,02,4.80
2008,10,08,03,03,4.80
2008,10,08,03,04,4.80
2008,10,08,03,05,4.80
2008,10,08,03,06,4.80
2008,10,08,03,07,4.80
2008,10,08,03,08,4.80
2008,10,08,03,09,4.90
2008,10,08,03,10,4.80
2008,10,08,03,11,4.80
2008,10,08,03,12,4.80
2008,10,08,03,13,4.80
2008,10,08,03,14,4.80
2008,10,08,03,15,4.80
2008,10,08,03,16,4.80
2008,10,08,03,17,4.80
2008,10,08,03,18,4.80
2008,10,08,03,19,4.80
2008,10,08,03,20,4.80
2008,10,08,03,21,4.80
2008,10,08,03,22,4.80
2008,10,08,03,23,4.80
2008,10,08,03,24,4.80
2008,10,08,03,25,4.80
2008,10,08,03,26,4.80
2008,10,08,03,27,4.80
2008,10,08,03,28,4.80
2008,10,08,03,29,4.80
2008,10,08,03,30,4.80
2008,10,08,03,31,4.80
2008,10,08,03,32,4.80
2008,10,08,03,33,4.90
2008,10,08,03,34,4.90
2008,10,08,03,35,5.00
2008,10,08,03,36,5.00
2008,10,08,03,37,5.10
2008,10,08,03,38,5.10
2008,10,08,03,39,5.10
2008,10,08,03,40,5.10
2008,10,08,03,41,5.10
2008,10,08,03,42,5.10
2008,10,08,03,43,5.10
2008,10,08,03,44,5.10
2008,10,08,03,45,5.10
2008,10,08,03,46,5.10
2008,10,08,03,47,5.10
2008,10,08,03,48,5.10
2008,10,08,03,49,5.10
2008,10,08,03,50,5.00
2008,10,08,03,51,5.00
2008,10,08,03,52,4.90
2008,10,08,03,53,4.90
2008,10,08,03,54,4.90
2008,10,08,03,55,4.80
2008,10,08,03,56,4.80
2008,10,08,03,57,4.80
2008,10,08,03,58,4.80
2008,10,08,03,59,4.70
2008,10,08,04,00,4.70
2008,10,08,04,01,4.70
2008,10,08,04,02,4.70
2008,10,08,04,03,4.70
2008,10,08,04,04,4.70
2008,10,08,04,05,4.60
2008,10,08,04,06,4.60
2008,10,08,04,07,4.60
2008,10,08,04,08,4.60
2008,10,08,04,09,4.60
2008,10,08,04,10,4.60
2008,10,08,04,11,4.60
2008,10,08,04,12,4.60
2008,10,08,04,13,4.60
2008,10,08,04,14,4.60
2008,10,08,04,15,4.60
2008,10,08,04,16,4.60
2008,10,08,04,17,4.60
2008,10,08,04,18,4.60
2008,10,08,04,19,4.60
2008,10,08,04,20,4.60
2008,10,08,04,21,4.60
2008,10,08,04,22,4.60
2008,10,08,04,23,4.60
2008,10,08,04,24,4.50
2008,10,08,04,25,4.50
2008,10,08,04,26,4.50
2008,10,08,04,27,4.50
2008,10,08,04,28,4.50
2008,10,08,04,29,4.60
2008,10,08,04,30,4.60
2008,10,08,04,31,4.60
2008,10,08,04,32,4.70
2008,10,08,04,33,4.70
2008,10,08,04,34,4.70
2008,10,08,04,35,4.70
2008,10,08,04,36,4.70
2008,10,08,04,37,4.70
2008,10,08,04,38,4.60
2008,10,08,04,39,4.60
2008,10,08,04,40,4.60
2008,10,08,04,41,4.50
2008,10,08,04,42,4.50
2008,10,08,04,43,4.40
2008,10,08,04,44,4.40
2008,10,08,04,45,4.40
2008,10,08,04,46,4.40
2008,10,08,04,47,4.40
2008,10,08,04,48,4.40
2008,10,08,04,49,4.30
2008,10,08,04,50,4.30
2008,10,08,04,51,4.30
2008,10,08,04,52,4.30
2008,10,08,04,53,4.30
2008,10,08,04,54,4.30
2008,10,08,04,55,4.30
2008,10,08,04,56,4.30
2008,10,08,04,57,4.30
2008,10,08,04,58,4.30
2008,10,08,04,59,4.40
2008,10,08,05,00,4.50
2008,10,08,05,01,4.50
2008,10,08,05,02,4.60
2008,10,08,05,03,4.60
2008,10,08,05,04,4.70
2008,10,08,05,05,4.70
2008,10,08,05,06,4.70
2008,10,08,05,07,4.80
2008,10,08,05,08,4.80
2008,10,08,05,09,4.80
2008,10,08,05,10,4.80
2008,10,08,05,11,4.80
2008,10,08,05,12,4.80
2008,10,08,05,13,4.90
2008,10,08,05,14,4.80
2008,10,08,05,15,4.80
2008,10,08,05,16,4.80
2008,10,08,05,17,4.80
2008,10,08,05,18,4.80
2008,10,08,05,19,4.80
2008,10,08,05,20,4.80
2008,10,08,05,21,4.80
2008,10,08,05,22,4.70
2008,10,08,05,23,4.70
2008,10,08,05,24,4.80
2008,10,08,05,25,4.80
2008,10,08,05,26,4.80
2008,10,08,05,27,4.80
2008,10,08,05,28,4.80
2008,10,08,05,29,4.80
2008,10,08,05,30,4.80
2008,10,08,05,31,4.80
2008,10,08,05,32,4.70
2008,10,08,05,33,4.70
2008,10,08,05,34,4.70
2008,10,08,05,35,4.70
2008,10,08,05,36,4.70
2008,10,08,05,37,4.60
2008,10,08,05,38,4.60
2008,10,08,05,39,4.50
2008,10,08,05,40,4.50
2008,10,08,05,41,4.50
2008,10,08,05,42,4.50
2008,10,08,05,43,4.50
2008,10,08,05,44,4.50
2008,10,08,05,45,4.50
2008,10,08,05,46,4.50
2008,10,08,05,47,4.50
2008,10,08,05,48,4.40
2008,10,08,05,49,4.40
2008,10,08,05,50,4.40
2008,10,08,05,51,4.40
2008,10,08,05,52,4.40
2008,10,08,05,53,4.40
2008,10,08,05,54,4.40
2008,10,08,05,55,4.40
2008,10,08,05,56,4.40
2008,10,08,05,57,4.40
2008,10,08,05,58,4.40
2008,10,08,05,59,4.40
2008,10,08,06,00,4.40
2008,10,08,06,01,4.40
2008,10,08,06,02,4.40
2008,10,08,06,03,4.40
2008,10,08,06,04,4.40
2008,10,08,06,05,4.40
2008,10,08,06,06,4.40
2008,10,08,06,07,4.40
2008,10,08,06,08,4.40
2008,10,08,06,09,4.40
2008,10,08,06,10,4.40
2008,10,08,06,11,4.40
2008,10,08,06,12,4.40
2008,10,08,06,13,4.40
2008,10,08,06,14,4.40
2008,10,08,06,15,4.40
2008,10,08,06,16,4.30
2008,10,08,06,17,4.30
2008,10,08,06,18,4.30
2008,10,08,06,19,4.30
2008,10,08,06,20,4.30
2008,10,08,06,21,4.30
2008,10,08,06,22,4.30
2008,10,08,06,23,4.30
2008,10,08,06,24,4.30
2008,10,08,06,25,4.30
2008,10,08,06,26,4.30
2008,10,08,06,27,4.30
2008,10,08,06,28,4.30
2008,10,08,06,29,4.30
2008,10,08,06,30,4.30
2008,10,08,06,31,4.30
2008,10,08,06,32,4.30
2008,10,08,06,33,4.30
2008,10,08,06,34,4.30
2008,10,08,06,35,4.30
2008,10,08,06,36,4.30
2008,10,08,06,37,4.30
2008,10,08,06,38,4.30
2008,10,08,06,39,4.30
2008,10,08,06,40,4.30
2008,10,08,06,41,4.20
2008,10,08,06,42,4.20
2008,10,08,06,43,4.20
2008,10,08,06,44,4.20
2008,10,08,06,45,4.20
2008,10,08,06,46,4.20
2008,10,08,06,47,4.20
2008,10,08,06,48,4.20
2008,10,08,06,49,4.20
2008,10,08,06,50,4.20
2008,10,08,06,51,4.20
2008,10,08,06,52,4.20
2008,10,08,06,53,4.20
2008,10,08,06,54,4.30
2008,10,08,06,55,4.30
2008,10,08,06,56,4.30
2008,10,08,06,57,4.30
2008,10,08,06,58,4.30
2008,10,08,06,59,4.30
2008,10,08,07,00,4.30
2008,10,08,07,01,4.30
2008,10,08,07,02,4.30
2008,10,08,07,03,4.30
2008,10,08,07,04,4.30
2008,10,08,07,05,4.30
2008,10,08,07,06,4.30
2008,10,08,07,07,4.30
2008,10,08,07,08,4.30
2008,10,08,07,09,4.30
2008,10,08,07,10,4.30
2008,10,08,07,11,4.30
2008,10,08,07,12,4.20
2008,10,08,07,13,4.20
2008,10,08,07,14,4.20
2008,10,08,07,15,4.20
2008,10,08,07,16,4.20
2008,10,08,07,17,4.20
2008,10,08,07,18,4.20
2008,10,08,07,19,4.20
2008,10,08,07,20,4.20
2008,10,08,07,21,4.20
2008,10,08,07,22,4.20
2008,10,08,07,23,4.20
2008,10,08,07,24,4.20
2008,10,08,07,25,4.20
2008,10,08,07,26,4.20
2008,10,08,07,27,4.20
2008,10,08,07,28,4.20
2008,10,08,07,29,4.20
2008,10,08,07,30,4.20
2008,10,08,07,31,4.20
2008,10,08,07,32,4.20
2008,10,08,07,33,4.20
2008,10,08,07,34,4.10
2008,10,08,07,35,4.10
2008,10,08,07,36,4.10
2008,10,08,07,37,4.10
2008,10,08,07,38,4.10
2008,10,08,07,39,4.10
2008,10,08,07,40,4.10
2008,10,08,07,41,4.10
2008,10,08,07,42,4.10
2008,10,08,07,43,4.00
2008,10,08,07,44,4.00
2008,10,08,07,45,4.00
2008,10,08,07,46,3.90
2008,10,08,07,47,3.90
2008,10,08,07,48,3.90
2008,10,08,07,49,3.80
2008,10,08,07,50,3.80
2008,10,08,07,51,3.80
2008,10,08,07,52,3.80
2008,10,08,07,53,3.90
2008,10,08,07,54,3.90
2008,10,08,07,55,3.90
2008,10,08,07,56,3.90
2008,10,08,07,57,3.90
2008,10,08,07,58,3.90
2008,10,08,07,59,3.90
2008,10,08,08,00,3.80
2008,10,08,08,01,3.80
2008,10,08,08,02,3.80
2008,10,08,08,03,3.80
2008,10,08,08,04,3.80
2008,10,08,08,05,3.90
2008,10,08,08,06,3.90
2008,10,08,08,07,3.90
2008,10,08,08,08,3.90
2008,10,08,08,09,3.90
2008,10,08,08,10,3.90
2008,10,08,08,11,4.00
2008,10,08,08,12,4.00
2008,10,08,08,13,4.10
2008,10,08,08,14,4.10
2008,10,08,08,15,4.20
2008,10,08,08,16,4.20
2008,10,08,08,17,4.30
2008,10,08,08,18,4.40
2008,10,08,08,19,4.40
2008,10,08,08,20,4.50
2008,10,08,08,21,4.60
2008,10,08,08,22,4.70
2008,10,08,08,23,4.70
2008,10,08,08,24,4.80
2008,10,08,08,25,4.80
2008,10,08,08,26,4.80
2008,10,08,08,27,4.70
2008,10,08,08,28,4.60
2008,10,08,08,29,4.60
2008,10,08,08,30,4.60
2008,10,08,08,31,4.70
2008,10,08,08,32,4.70
2008,10,08,08,33,4.70
2008,10,08,08,34,4.80
2008,10,08,08,35,4.80
2008,10,08,08,36,4.80
2008,10,08,08,37,4.70
2008,10,08,08,38,4.70
2008,10,08,08,39,4.80
2008,10,08,08,40,4.80
2008,10,08,08,41,4.80
2008,10,08,08,42,4.80
2008,10,08,08,43,4.80
2008,10,08,08,44,4.80
2008,10,08,08,45,4.80
2008,10,08,08,46,4.90
2008,10,08,08,47,4.90
2008,10,08,08,48,5.00
2008,10,08,08,49,5.10
2008,10,08,08,50,5.10
2008,10,08,08,51,5.30
2008,10,08,08,52,5.40
2008,10,08,08,53,5.50
2008,10,08,08,54,5.60
2008,10,08,08,55,5.80
2008,10,08,08,56,5.80
2008,10,08,08,57,5.90
2008,10,08,08,58,5.80
2008,10,08,08,59,5.80
2008,10,08,09,00,5.80
2008,10,08,09,01,5.80
2008,10,08,09,02,5.80
2008,10,08,09,03,5.90
2008,10,08,09,04,5.90
2008,10,08,09,05,6.00
2008,10,08,09,06,6.00
2008,10,08,09,07,6.10
2008,10,08,09,08,6.20
2008,10,08,09,09,6.20
2008,10,08,09,10,6.30
2008,10,08,09,11,6.50
2008,10,08,09,12,6.60
2008,10,08,09,13,6.80
2008,10,08,09,14,6.90
2008,10,08,09,15,7.00
2008,10,08,09,16,7.20
2008,10,08,09,17,7.20
2008,10,08,09,18,7.30
2008,10,08,09,19,7.50
2008,10,08,09,20,7.60
2008,10,08,09,21,7.80
2008,10,08,09,22,7.90
2008,10,08,09,23,8.00
2008,10,08,09,24,8.10
2008,10,08,09,25,8.20
2008,10,08,09,26,8.20
2008,10,08,09,27,8.30
2008,10,08,09,28,8.40
2008,10,08,09,29,8.50
2008,10,08,09,30,8.50
2008,10,08,09,31,8.60
2008,10,08,09,32,8.70
2008,10,08,09,33,8.70
2008,10,08,09,34,8.80
2008,10,08,09,35,8.90
2008,10,08,09,36,9.00
2008,10,08,09,37,9.10
2008,10,08,09,38,9.30
2008,10,08,09,39,9.40
2008,10,08,09,40,9.50
2008,10,08,09,41,9.60
2008,10,08,09,42,9.70
2008,10,08,09,43,9.80
2008,10,08,09,44,9.80
2008,10,08,09,45,10.00
2008,10,08,09,46,10.10
2008,10,08,09,47,10.10
2008,10,08,09,48,10.20
2008,10,08,09,49,10.20
2008,10,08,09,50,10.20
2008,10,08,09,51,10.30
2008,10,08,09,52,10.30
2008,10,08,09,53,10.30
2008,10,08,09,54,10.30
2008,10,08,09,55,10.30
2008,10,08,09,56,10.40
2008,10,08,09,57,10.40
2008,10,08,09,58,10.50
2008,10,08,09,59,10.60
2008,10,08,10,00,10.60
2008,10,08,10,01,10.60
2008,10,08,10,02,10.50
2008,10,08,10,03,10.40
2008,10,08,10,04,10.30
2008,10,08,10,05,10.20
2008,10,08,10,06,10.20
2008,10,08,10,07,10.20
2008,10,08,10,08,10.20
2008,10,08,10,09,10.20
2008,10,08,10,10,10.10
2008,10,08,10,11,10.10
2008,10,08,10,12,10.10
2008,10,08,10,13,10.00
2008,10,08,10,14,10.00
2008,10,08,10,15,10.00
2008,10,08,10,16,10.00
2008,10,08,10,17,9.90
2008,10,08,10,18,9.90
2008,10,08,10,19,9.90
2008,10,08,10,20,10.00
2008,10,08,10,21,10.00
2008,10,08,10,22,10.10
2008,10,08,10,23,10.10
2008,10,08,10,24,10.10
2008,10,08,10,25,10.20
2008,10,08,10,26,10.20
2008,10,08,10,27,10.10
2008,10,08,10,28,10.10
2008,10,08,10,29,10.00
2008,10,08,10,30,10.00
2008,10,08,10,31,10.00
2008,10,08,10,32,9.90
2008,10,08,10,33,9.90
2008,10,08,10,34,10.00
2008,10,08,10,35,10.10
2008,10,08,10,36,10.20
2008,10,08,10,37,10.40
2008,10,08,10,38,10.50
2008,10,08,10,39,10.70
2008,10,08,10,40,10.80
2008,10,08,10,41,10.80
2008,10,08,10,42,10.90
2008,10,08,10,43,11.00
2008,10,08,10,44,11.10
2008,10,08,10,45,11.10
2008,10,08,10,46,11.10
2008,10,08,10,47,11.10
2008,10,08,10,48,11.00
2008,10,08,10,49,10.90
2008,10,08,10,50,10.80
2008,10,08,10,51,10.80
2008,10,08,10,52,10.80
2008,10,08,10,53,10.80
2008,10,08,10,54,10.80
2008,10,08,10,55,10.70
2008,10,08,10,56,10.70
2008,10,08,10,57,10.60
2008,10,08,10,58,10.60
2008,10,08,10,59,10.60
2008,10,08,11,00,10.50
2008,10,08,11,01,10.50
2008,10,08,11,02,10.50
2008,10,08,11,03,10.50
2008,10,08,11,04,10.50
2008,10,08,11,05,10.50
2008,10,08,11,06,10.50
2008,10,08,11,07,10.50
2008,10,08,11,08,10.50
2008,10,08,11,09,10.60
2008,10,08,11,10,10.60
2008,10,08,11,11,10.60
2008,10,08,11,12,10.60
2008,10,08,11,13,10.60
2008,10,08,11,14,10.60
2008,10,08,11,15,10.60
2008,10,08,11,16,10.60
2008,10,08,11,17,10.60
2008,10,08,11,18,10.50
2008,10,08,11,19,10.50
2008,10,08,11,20,10.40
2008,10,08,11,21,10.40
2008,10,08,11,22,10.30
2008,10,08,11,23,10.30
2008,10,08,11,24,10.30
2008,10,08,11,25,10.30
2008,10,08,11,26,10.20
2008,10,08,11,27,10.20
2008,10,08,11,28,10.30
2008,10,08,11,29,10.30
2008,10,08,11,30,10.30
2008,10,08,11,31,10.30
2008,10,08,11,32,10.30
2008,10,08,11,33,10.30
2008,10,08,11,34,10.30
2008,10,08,11,35,10.30
2008,10,08,11,36,10.20
2008,10,08,11,37,10.30
2008,10,08,11,38,10.30
2008,10,08,11,39,10.30
2008,10,08,11,40,10.40
2008,10,08,11,41,10.40
2008,10,08,11,42,10.50
2008,10,08,11,43,10.50
2008,10,08,11,44,10.50
2008,10,08,11,45,10.50
2008,10,08,11,46,10.50
2008,10,08,11,47,10.50
2008,10,08,11,48,10.50
2008,10,08,11,49,10.50
2008,10,08,11,50,10.50
2008,10,08,11,51,10.50
2008,10,08,11,52,10.50
2008,10,08,11,53,10.60
2008,10,08,11,54,10.60
2008,10,08,11,55,10.70
2008,10,08,11,56,10.70
2008,10,08,11,57,10.70
2008,10,08,11,58,10.70
2008,10,08,11,59,10.70
2008,10,08,12,00,10.80
2008,10,08,12,01,10.80
2008,10,08,12,02,10.80
2008,10,08,12,03,10.80
2008,10,08,12,04,10.80
2008,10,08,12,05,10.80
2008,10,08,12,06,10.80
2008,10,08,12,07,10.70
2008,10,08,12,08,10.70
2008,10,08,12,09,10.80
2008,10,08,12,10,10.80
2008,10,08,12,11,10.80
2008,10,08,12,12,10.80
2008,10,08,12,13,10.80
2008,10,08,12,14,10.80
2008,10,08,12,15,10.80
2008,10,08,12,16,10.80
2008,10,08,12,17,10.80
2008,10,08,12,18,10.80
2008,10,08,12,19,10.80
2008,10,08,12,20,10.80
2008,10,08,12,21,10.90
2008,10,08,12,22,10.80
2008,10,08,12,23,10.80
2008,10,08,12,24,10.80
2008,10,08,12,25,10.70
2008,10,08,12,26,10.70
2008,10,08,12,27,10.70
2008,10,08,12,28,10.70
2008,10,08,12,29,10.70
2008,10,08,12,30,10.70
2008,10,08,12,31,10.70
2008,10,08,12,32,10.70
2008,10,08,12,33,10.80
2008,10,08,12,34,10.80
2008,10,08,12,35,10.90
2008,10,08,12,36,10.90
2008,10,08,12,37,10.90
2008,10,08,12,38,10.90
2008,10,08,12,39,11.00
2008,10,08,12,40,11.00
2008,10,08,12,41,11.00
2008,10,08,12,42,11.00
2008,10,08,12,43,11.00
2008,10,08,12,44,11.00
2008,10,08,12,45,11.00
2008,10,08,12,46,11.00
2008,10,08,12,47,11.00
2008,10,08,12,48,11.00
2008,10,08,12,49,11.00
2008,10,08,12,50,11.10
2008,10,08,12,51,11.10
2008,10,08,12,52,11.10
2008,10,08,12,53,11.10
2008,10,08,12,54,11.10
2008,10,08,12,55,11.10
2008,10,08,12,56,11.10
2008,10,08,12,57,11.00
2008,10,08,12,58,11.00
2008,10,08,12,59,10.90
2008,10,08,13,00,10.90
2008,10,08,13,01,11.00
2008,10,08,13,02,11.10
2008,10,08,13,03,11.20
2008,10,08,13,04,11.30
2008,10,08,13,05,11.30
2008,10,08,13,06,11.40
2008,10,08,13,07,11.40
2008,10,08,13,08,11.40
2008,10,08,13,09,11.40
2008,10,08,13,10,11.30
2008,10,08,13,11,11.30
2008,10,08,13,12,11.30
2008,10,08,13,13,11.30
2008,10,08,13,14,11.20
2008,10,08,13,15,11.20
2008,10,08,13,16,11.20
2008,10,08,13,17,11.20
2008,10,08,13,18,11.20
2008,10,08,13,19,11.20
2008,10,08,13,20,11.30
2008,10,08,13,21,11.30
2008,10,08,13,22,11.30
2008,10,08,13,23,11.30
2008,10,08,13,24,11.40
2008,10,08,13,25,11.40
2008,10,08,13,26,11.40
2008,10,08,13,27,11.40
2008,10,08,13,28,11.40
2008,10,08,13,29,11.30
2008,10,08,13,30,11.30
2008,10,08,13,31,11.30
2008,10,08,13,32,11.20
2008,10,08,13,33,11.20
2008,10,08,13,34,11.30
2008,10,08,13,35,11.30
2008,10,08,13,36,11.30
2008,10,08,13,37,11.30
2008,10,08,13,38,11.40
2008,10,08,13,39,11.30
2008,10,08,13,40,11.30
2008,10,08,13,41,11.30
2008,10,08,13,42,11.30
2008,10,08,13,43,11.20
2008,10,08,13,44,11.20
2008,10,08,13,45,11.20
2008,10,08,13,46,11.30
2008,10,08,13,47,11.30
2008,10,08,13,48,11.30
2008,10,08,13,49,11.30
2008,10,08,13,50,11.30
2008,10,08,13,51,11.30
2008,10,08,13,52,11.30
2008,10,08,13,53,11.30
2008,10,08,13,54,11.30
2008,10,08,13,55,11.30
2008,10,08,13,56,11.30
2008,10,08,13,57,11.30
2008,10,08,13,58,11.30
2008,10,08,13,59,11.20
2008,10,08,14,00,11.20
2008,10,08,14,01,11.20
2008,10,08,14,02,11.20
2008,10,08,14,03,11.20
2008,10,08,14,04,11.20
2008,10,08,14,05,11.20
2008,10,08,14,06,11.20
2008,10,08,14,07,11.20
2008,10,08,14,08,11.10
2008,10,08,14,09,11.10
2008,10,08,14,10,11.10
2008,10,08,14,11,11.10
2008,10,08,14,12,11.00
2008,10,08,14,13,11.10
2008,10,08,14,14,11.10
2008,10,08,14,15,11.10
2008,10,08,14,16,11.20
2008,10,08,14,17,11.20
2008,10,08,14,18,11.20
2008,10,08,14,19,11.20
2008,10,08,14,20,11.20
2008,10,08,14,21,11.20
2008,10,08,14,22,11.20
2008,10,08,14,23,11.20
2008,10,08,14,24,11.20
2008,10,08,14,25,11.10
2008,10,08,14,26,11.10
2008,10,08,14,27,11.10
2008,10,08,14,28,11.10
2008,10,08,14,29,11.00
2008,10,08,14,30,11.00
2008,10,08,14,31,11.10
2008,10,08,14,32,11.10
2008,10,08,14,33,11.10
2008,10,08,14,34,11.10
2008,10,08,14,35,11.10
2008,10,08,14,36,11.10
2008,10,08,14,37,11.20
2008,10,08,14,38,11.20
2008,10,08,14,39,11.30
2008,10,08,14,40,11.30
2008,10,08,14,41,11.30
2008,10,08,14,42,11.40
2008,10,08,14,43,11.40
2008,10,08,14,44,11.40
2008,10,08,14,45,11.30
2008,10,08,14,46,11.30
2008,10,08,14,47,11.30
2008,10,08,14,48,11.30
2008,10,08,14,49,11.30
2008,10,08,14,50,11.20
2008,10,08,14,51,11.20
2008,10,08,14,52,11.30
2008,10,08,14,53,11.30
2008,10,08,14,54,11.30
2008,10,08,14,55,11.30
2008,10,08,14,56,11.30
2008,10,08,14,57,11.30
2008,10,08,14,58,11.30
2008,10,08,14,59,11.30
2008,10,08,15,00,11.40
2008,10,08,15,01,11.40
2008,10,08,15,02,11.40
2008,10,08,15,03,11.40
2008,10,08,15,04,11.40
2008,10,08,15,05,11.40
2008,10,08,15,06,11.40
2008,10,08,15,07,11.40
2008,10,08,15,08,11.40
2008,10,08,15,09,11.40
2008,10,08,15,10,11.40
2008,10,08,15,11,11.50
2008,10,08,15,12,11.50
2008,10,08,15,13,11.50
2008,10,08,15,14,11.60
2008,10,08,15,15,11.70
2008,10,08,15,16,11.70
2008,10,08,15,17,11.80
2008,10,08,15,18,11.80
2008,10,08,15,19,11.80
2008,10,08,15,20,11.80
2008,10,08,15,21,11.80
2008,10,08,15,22,11.80
2008,10,08,15,23,11.80
2008,10,08,15,24,11.80
2008,10,08,15,25,11.80
2008,10,08,15,26,11.80
2008,10,08,15,27,11.80
2008,10,08,15,28,11.80
2008,10,08,15,29,11.80
2008,10,08,15,30,11.80
2008,10,08,15,31,11.80
2008,10,08,15,32,11.80
2008,10,08,15,33,11.70
2008,10,08,15,34,11.70
2008,10,08,15,35,11.70
2008,10,08,15,36,11.70
2008,10,08,15,37,11.70
2008,10,08,15,38,11.70
2008,10,08,15,39,11.70
2008,10,08,15,40,11.70
2008,10,08,15,41,11.70
2008,10,08,15,42,11.70
2008,10,08,15,43,11.70
2008,10,08,15,44,11.70
2008,10,08,15,45,11.70
2008,10,08,15,46,11.70
2008,10,08,15,47,11.70
2008,10,08,15,48,11.70
2008,10,08,15,49,11.70
2008,10,08,15,50,11.70
2008,10,08,15,51,11.70
2008,10,08,15,52,11.70
2008,10,08,15,53,11.70
2008,10,08,15,54,11.70
2008,10,08,15,55,11.80
2008,10,08,15,56,11.80
2008,10,08,15,57,11.80
2008,10,08,15,58,11.90
2008,10,08,15,59,12.00
2008,10,08,16,00,12.00
2008,10,08,16,01,12.10
2008,10,08,16,02,12.20
2008,10,08,16,03,12.20
2008,10,08,16,04,12.30
2008,10,08,16,05,12.30
2008,10,08,16,06,12.30
2008,10,08,16,07,12.30
2008,10,08,16,08,12.20
2008,10,08,16,09,12.10
2008,10,08,16,10,12.00
2008,10,08,16,11,11.80
2008,10,08,16,12,11.70
2008,10,08,16,13,11.60
2008,10,08,16,14,11.50
2008,10,08,16,15,11.50
2008,10,08,16,16,11.40
2008,10,08,16,17,11.40
2008,10,08,16,18,11.40
2008,10,08,16,19,11.30
2008,10,08,16,20,11.30
2008,10,08,16,21,11.30
2008,10,08,16,22,11.30
2008,10,08,16,23,11.20
2008,10,08,16,24,11.20
2008,10,08,16,25,11.20
2008,10,08,16,26,11.20
2008,10,08,16,27,11.20
2008,10,08,16,28,11.20
2008,10,08,16,29,11.20
2008,10,08,16,30,11.20
2008,10,08,16,31,11.20
2008,10,08,16,32,11.20
2008,10,08,16,33,11.20
2008,10,08,16,34,11.20
2008,10,08,16,35,11.20
2008,10,08,16,36,11.20
2008,10,08,16,37,11.20
2008,10,08,16,38,11.20
2008,10,08,16,39,11.20
2008,10,08,16,40,11.30
2008,10,08,16,41,11.30
2008,10,08,16,42,11.40
2008,10,08,16,43,11.40
2008,10,08,16,44,11.40
2008,10,08,16,45,11.40
2008,10,08,16,46,11.40
2008,10,08,16,47,11.40
2008,10,08,16,48,11.30
2008,10,08,16,49,11.30
2008,10,08,16,50,11.30
2008,10,08,16,51,11.30
2008,10,08,16,52,11.30
2008,10,08,16,53,11.30
2008,10,08,16,54,11.30
2008,10,08,16,55,11.30
2008,10,08,16,56,11.30
2008,10,08,16,57,11.30
2008,10,08,16,58,11.30
2008,10,08,16,59,11.30
2008,10,08,17,00,11.20
2008,10,08,17,01,11.20
2008,10,08,17,02,11.20
2008,10,08,17,03,11.20
2008,10,08,17,04,11.20
2008,10,08,17,05,11.20
2008,10,08,17,06,11.10
2008,10,08,17,07,11.10
2008,10,08,17,08,11.10
2008,10,08,17,09,11.10
2008,10,08,17,10,11.10
2008,10,08,17,11,11.10
2008,10,08,17,12,11.10
2008,10,08,17,13,11.10
2008,10,08,17,14,11.10
2008,10,08,17,15,11.10
2008,10,08,17,16,11.10
2008,10,08,17,17,11.10
2008,10,08,17,18,11.10
2008,10,08,17,19,11.10
2008,10,08,17,20,11.10
2008,10,08,17,21,11.10
2008,10,08,17,22,11.10
2008,10,08,17,23,11.10
2008,10,08,17,24,11.10
2008,10,08,17,25,11.10
2008,10,08,17,26,11.10
2008,10,08,17,27,11.10
2008,10,08,17,28,11.10
2008,10,08,17,29,11.10
2008,10,08,17,30,11.00
2008,10,08,17,31,11.00
2008,10,08,17,32,11.00
2008,10,08,17,33,11.00
2008,10,08,17,34,11.00
2008,10,08,17,35,11.00
2008,10,08,17,36,11.00
2008,10,08,17,37,11.00
2008,10,08,17,38,11.00
2008,10,08,17,39,11.00
2008,10,08,17,40,10.90
2008,10,08,17,41,10.90
2008,10,08,17,42,10.90
2008,10,08,17,43,10.90
2008,10,08,17,44,10.90
2008,10,08,17,45,10.90